Location: Focicchia
(42.2496°N, 9.2935°E)
Time: 02:36:34
(UTC+00:00)

CZ-2C R/B - Pass Details

Date: 07 June 2020
Orbit: 503 x 567 km, 97.7° (Epoch: 06 July)

Event Time Altitude Azimuth Distance (km) Brightness Sun altitude
Rises 02:59:12 0° 9° (N) 2,638 7.2 -7.9°
Reaches altitude 10° 03:01:17 10° 6° (N) 1,755 6.1 -7.6°
Maximum altitude 03:05:02 64° 285° (WNW) 584 2.8 -7.1°
Drops below altitude 10° 03:08:49 10° 204° (SSW) 1,776 4.9 -6.5°
Enters shadow 03:09:53 - 202° (SSW) 2,221 5.4 -6.4°
